Year,Month,Day,Hour,Minute,Value (Times are PST for temperature in C)
2008,05,28,00,00,12.10
2008,05,28,00,01,12.00
2008,05,28,00,02,12.00
2008,05,28,00,03,11.90
2008,05,28,00,04,11.90
2008,05,28,00,05,11.80
2008,05,28,00,06,11.80
2008,05,28,00,07,11.80
2008,05,28,00,08,11.80
2008,05,28,00,09,11.80
2008,05,28,00,10,11.80
2008,05,28,00,11,11.80
2008,05,28,00,12,11.80
2008,05,28,00,13,11.70
2008,05,28,00,14,11.70
2008,05,28,00,15,11.70
2008,05,28,00,16,11.70
2008,05,28,00,17,11.70
2008,05,28,00,18,11.70
2008,05,28,00,19,11.70
2008,05,28,00,20,11.70
2008,05,28,00,21,11.70
2008,05,28,00,22,11.70
2008,05,28,00,23,11.70
2008,05,28,00,24,11.70
2008,05,28,00,25,11.70
2008,05,28,00,26,11.70
2008,05,28,00,27,11.70
2008,05,28,00,28,11.70
2008,05,28,00,29,11.70
2008,05,28,00,30,11.70
2008,05,28,00,31,11.70
2008,05,28,00,32,11.70
2008,05,28,00,33,11.70
2008,05,28,00,34,11.60
2008,05,28,00,35,11.60
2008,05,28,00,36,11.60
2008,05,28,00,37,11.60
2008,05,28,00,38,11.60
2008,05,28,00,39,11.60
2008,05,28,00,40,11.60
2008,05,28,00,41,11.60
2008,05,28,00,42,11.60
2008,05,28,00,43,11.60
2008,05,28,00,44,11.60
2008,05,28,00,45,11.60
2008,05,28,00,46,11.60
2008,05,28,00,47,11.60
2008,05,28,00,48,11.60
2008,05,28,00,49,11.60
2008,05,28,00,50,11.60
2008,05,28,00,51,11.60
2008,05,28,00,52,11.60
2008,05,28,00,53,11.60
2008,05,28,00,54,11.60
2008,05,28,00,55,11.50
2008,05,28,00,56,11.40
2008,05,28,00,57,11.40
2008,05,28,00,58,11.40
2008,05,28,00,59,11.40
2008,05,28,01,00,11.40
2008,05,28,01,01,11.40
2008,05,28,01,02,11.40
2008,05,28,01,03,11.40
2008,05,28,01,04,11.40
2008,05,28,01,05,11.40
2008,05,28,01,06,11.50
2008,05,28,01,07,11.60
2008,05,28,01,08,11.60
2008,05,28,01,09,11.60
2008,05,28,01,10,11.60
2008,05,28,01,11,11.60
2008,05,28,01,12,11.60
2008,05,28,01,13,11.60
2008,05,28,01,14,11.60
2008,05,28,01,15,11.60
2008,05,28,01,16,11.60
2008,05,28,01,17,11.60
2008,05,28,01,18,11.60
2008,05,28,01,19,11.60
2008,05,28,01,20,11.60
2008,05,28,01,21,11.60
2008,05,28,01,22,11.60
2008,05,28,01,23,11.60
2008,05,28,01,24,11.60
2008,05,28,01,25,11.60
2008,05,28,01,26,11.60
2008,05,28,01,27,11.60
2008,05,28,01,28,11.60
2008,05,28,01,29,11.60
2008,05,28,01,30,11.60
2008,05,28,01,31,11.60
2008,05,28,01,32,11.60
2008,05,28,01,33,11.60
2008,05,28,01,34,11.60
2008,05,28,01,35,11.60
2008,05,28,01,36,11.60
2008,05,28,01,37,11.60
2008,05,28,01,38,11.60
2008,05,28,01,39,11.60
2008,05,28,01,40,11.60
2008,05,28,01,41,11.60
2008,05,28,01,42,11.60
2008,05,28,01,43,11.60
2008,05,28,01,44,11.60
2008,05,28,01,45,11.60
2008,05,28,01,46,11.60
2008,05,28,01,47,11.60
2008,05,28,01,48,11.60
2008,05,28,01,49,11.60
2008,05,28,01,50,11.40
2008,05,28,01,51,11.40
2008,05,28,01,52,11.40
2008,05,28,01,53,11.40
2008,05,28,01,54,11.40
2008,05,28,01,55,11.40
2008,05,28,01,56,11.40
2008,05,28,01,57,11.40
2008,05,28,01,58,11.40
2008,05,28,01,59,11.40
2008,05,28,02,00,11.40
2008,05,28,02,01,11.40
2008,05,28,02,02,11.40
2008,05,28,02,03,11.40
2008,05,28,02,04,11.40
2008,05,28,02,05,11.40
2008,05,28,02,06,11.40
2008,05,28,02,07,11.40
2008,05,28,02,08,11.40
2008,05,28,02,09,11.40
2008,05,28,02,10,11.40
2008,05,28,02,11,11.40
2008,05,28,02,12,11.40
2008,05,28,02,13,11.40
2008,05,28,02,14,11.40
2008,05,28,02,15,11.40
2008,05,28,02,16,11.40
2008,05,28,02,17,11.40
2008,05,28,02,18,11.40
2008,05,28,02,19,11.40
2008,05,28,02,20,11.40
2008,05,28,02,21,11.40
2008,05,28,02,22,11.40
2008,05,28,02,23,11.40
2008,05,28,02,24,11.40
2008,05,28,02,25,11.40
2008,05,28,02,26,11.40
2008,05,28,02,27,11.40
2008,05,28,02,28,11.40
2008,05,28,02,29,11.40
2008,05,28,02,30,11.40
2008,05,28,02,31,11.40
2008,05,28,02,32,11.30
2008,05,28,02,33,11.30
2008,05,28,02,34,11.30
2008,05,28,02,35,11.30
2008,05,28,02,36,11.30
2008,05,28,02,37,11.30
2008,05,28,02,38,11.20
2008,05,28,02,39,11.20
2008,05,28,02,40,11.10
2008,05,28,02,41,11.10
2008,05,28,02,42,11.10
2008,05,28,02,43,11.10
2008,05,28,02,44,11.10
2008,05,28,02,45,11.10
2008,05,28,02,46,11.10
2008,05,28,02,47,11.10
2008,05,28,02,48,11.10
2008,05,28,02,49,11.00
2008,05,28,02,50,10.90
2008,05,28,02,51,10.90
2008,05,28,02,52,10.90
2008,05,28,02,53,10.90
2008,05,28,02,54,10.90
2008,05,28,02,55,10.90
2008,05,28,02,56,10.90
2008,05,28,02,57,10.90
2008,05,28,02,58,10.80
2008,05,28,02,59,10.80
2008,05,28,03,00,10.80
2008,05,28,03,01,10.80
2008,05,28,03,02,10.70
2008,05,28,03,03,10.70
2008,05,28,03,04,10.70
2008,05,28,03,05,10.70
2008,05,28,03,06,10.70
2008,05,28,03,07,10.70
2008,05,28,03,08,10.70
2008,05,28,03,09,10.60
2008,05,28,03,10,10.60
2008,05,28,03,11,10.60
2008,05,28,03,12,10.60
2008,05,28,03,13,10.60
2008,05,28,03,14,10.60
2008,05,28,03,15,10.60
2008,05,28,03,16,10.60
2008,05,28,03,17,10.60
2008,05,28,03,18,10.60
2008,05,28,03,19,10.60
2008,05,28,03,20,10.60
2008,05,28,03,21,10.60
2008,05,28,03,22,10.60
2008,05,28,03,23,10.60
2008,05,28,03,24,10.60
2008,05,28,03,25,10.60
2008,05,28,03,26,10.50
2008,05,28,03,27,10.40
2008,05,28,03,28,10.40
2008,05,28,03,29,10.40
2008,05,28,03,30,10.40
2008,05,28,03,31,10.40
2008,05,28,03,32,10.40
2008,05,28,03,33,10.40
2008,05,28,03,34,10.40
2008,05,28,03,35,10.40
2008,05,28,03,36,10.40
2008,05,28,03,37,10.40
2008,05,28,03,38,10.40
2008,05,28,03,39,10.40
2008,05,28,03,40,10.40
2008,05,28,03,41,10.40
2008,05,28,03,42,10.40
2008,05,28,03,43,10.40
2008,05,28,03,44,10.40
2008,05,28,03,45,10.30
2008,05,28,03,46,10.30
2008,05,28,03,47,10.30
2008,05,28,03,48,10.30
2008,05,28,03,49,10.30
2008,05,28,03,50,10.30
2008,05,28,03,51,10.20
2008,05,28,03,52,10.20
2008,05,28,03,53,10.20
2008,05,28,03,54,10.20
2008,05,28,03,55,10.20
2008,05,28,03,56,10.20
2008,05,28,03,57,10.10
2008,05,28,03,58,10.10
2008,05,28,03,59,10.10
2008,05,28,04,00,10.10
2008,05,28,04,01,10.10
2008,05,28,04,02,10.10
2008,05,28,04,03,10.10
2008,05,28,04,04,10.10
2008,05,28,04,05,10.10
2008,05,28,04,06,10.10
2008,05,28,04,07,10.10
2008,05,28,04,08,10.10
2008,05,28,04,09,10.10
2008,05,28,04,10,10.10
2008,05,28,04,11,10.10
2008,05,28,04,12,10.10
2008,05,28,04,13,10.10
2008,05,28,04,14,10.00
2008,05,28,04,15,9.90
2008,05,28,04,16,9.90
2008,05,28,04,17,9.90
2008,05,28,04,18,9.90
2008,05,28,04,19,9.90
2008,05,28,04,20,9.90
2008,05,28,04,21,9.90
2008,05,28,04,22,9.90
2008,05,28,04,23,9.90
2008,05,28,04,24,9.90
2008,05,28,04,25,9.90
2008,05,28,04,26,9.90
2008,05,28,04,27,9.90
2008,05,28,04,28,9.90
2008,05,28,04,29,9.90
2008,05,28,04,30,9.90
2008,05,28,04,31,9.90
2008,05,28,04,32,9.90
2008,05,28,04,33,9.90
2008,05,28,04,34,9.90
2008,05,28,04,35,9.90
2008,05,28,04,36,9.80
2008,05,28,04,37,9.80
2008,05,28,04,38,9.80
2008,05,28,04,39,9.80
2008,05,28,04,40,9.80
2008,05,28,04,41,9.80
2008,05,28,04,42,9.90
2008,05,28,04,43,9.90
2008,05,28,04,44,9.90
2008,05,28,04,45,9.90
2008,05,28,04,46,9.90
2008,05,28,04,47,9.90
2008,05,28,04,48,9.90
2008,05,28,04,49,9.90
2008,05,28,04,50,9.90
2008,05,28,04,51,9.90
2008,05,28,04,52,9.90
2008,05,28,04,53,9.90
2008,05,28,04,54,9.90
2008,05,28,04,55,9.90
2008,05,28,04,56,9.90
2008,05,28,04,57,9.90
2008,05,28,04,58,9.90
2008,05,28,04,59,9.90
2008,05,28,05,00,9.90
2008,05,28,05,01,9.90
2008,05,28,05,02,9.90
2008,05,28,05,03,9.90
2008,05,28,05,04,9.80
2008,05,28,05,05,9.80
2008,05,28,05,06,9.90
2008,05,28,05,07,9.90
2008,05,28,05,08,9.90
2008,05,28,05,09,9.90
2008,05,28,05,10,9.90
2008,05,28,05,11,9.90
2008,05,28,05,12,9.90
2008,05,28,05,13,9.90
2008,05,28,05,14,9.90
2008,05,28,05,15,9.90
2008,05,28,05,16,9.90
2008,05,28,05,17,9.90
2008,05,28,05,18,9.90
2008,05,28,05,19,9.90
2008,05,28,05,20,9.90
2008,05,28,05,21,9.90
2008,05,28,05,22,9.90
2008,05,28,05,23,9.90
2008,05,28,05,24,9.90
2008,05,28,05,25,9.90
2008,05,28,05,26,9.90
2008,05,28,05,27,9.90
2008,05,28,05,28,9.90
2008,05,28,05,29,9.90
2008,05,28,05,30,9.90
2008,05,28,05,31,9.90
2008,05,28,05,32,9.90
2008,05,28,05,33,9.90
2008,05,28,05,34,9.90
2008,05,28,05,35,9.90
2008,05,28,05,36,9.90
2008,05,28,05,37,9.90
2008,05,28,05,38,10.00
2008,05,28,05,39,10.00
2008,05,28,05,40,10.10
2008,05,28,05,41,10.10
2008,05,28,05,42,10.10
2008,05,28,05,43,10.10
2008,05,28,05,44,10.10
2008,05,28,05,45,10.10
2008,05,28,05,46,10.10
2008,05,28,05,47,10.10
2008,05,28,05,48,10.10
2008,05,28,05,49,10.10
2008,05,28,05,50,10.10
2008,05,28,05,51,10.10
2008,05,28,05,52,10.10
2008,05,28,05,53,10.10
2008,05,28,05,54,10.10
2008,05,28,05,55,10.10
2008,05,28,05,56,10.10
2008,05,28,05,57,10.10
2008,05,28,05,58,10.10
2008,05,28,05,59,10.10
2008,05,28,06,00,10.10
2008,05,28,06,01,10.10
2008,05,28,06,02,10.10
2008,05,28,06,03,10.10
2008,05,28,06,04,10.10
2008,05,28,06,05,10.10
2008,05,28,06,06,10.20
2008,05,28,06,07,10.20
2008,05,28,06,08,10.20
2008,05,28,06,09,10.20
2008,05,28,06,10,10.20
2008,05,28,06,11,10.20
2008,05,28,06,12,10.30
2008,05,28,06,13,10.30
2008,05,28,06,14,10.30
2008,05,28,06,15,10.30
2008,05,28,06,16,10.30
2008,05,28,06,17,10.30
2008,05,28,06,18,10.40
2008,05,28,06,19,10.40
2008,05,28,06,20,10.40
2008,05,28,06,21,10.40
2008,05,28,06,22,10.40
2008,05,28,06,23,10.40
2008,05,28,06,24,10.50
2008,05,28,06,25,10.60
2008,05,28,06,26,10.60
2008,05,28,06,27,10.60
2008,05,28,06,28,10.60
2008,05,28,06,29,10.60
2008,05,28,06,30,10.60
2008,05,28,06,31,10.60
2008,05,28,06,32,10.60
2008,05,28,06,33,10.70
2008,05,28,06,34,10.70
2008,05,28,06,35,10.70
2008,05,28,06,36,10.80
2008,05,28,06,37,10.80
2008,05,28,06,38,10.80
2008,05,28,06,39,10.90
2008,05,28,06,40,10.90
2008,05,28,06,41,10.90
2008,05,28,06,42,10.90
2008,05,28,06,43,10.90
2008,05,28,06,44,10.90
2008,05,28,06,45,10.90
2008,05,28,06,46,10.90
2008,05,28,06,47,10.90
2008,05,28,06,48,10.90
2008,05,28,06,49,10.90
2008,05,28,06,50,10.90
2008,05,28,06,51,11.00
2008,05,28,06,52,11.10
2008,05,28,06,53,11.10
2008,05,28,06,54,11.10
2008,05,28,06,55,11.10
2008,05,28,06,56,11.10
2008,05,28,06,57,11.20
2008,05,28,06,58,11.20
2008,05,28,06,59,11.20
2008,05,28,07,00,11.30
2008,05,28,07,01,11.30
2008,05,28,07,02,11.30
2008,05,28,07,03,11.30
2008,05,28,07,04,11.40
2008,05,28,07,05,11.40
2008,05,28,07,06,11.40
2008,05,28,07,07,11.40
2008,05,28,07,08,11.40
2008,05,28,07,09,11.40
2008,05,28,07,10,11.40
2008,05,28,07,11,11.50
2008,05,28,07,12,11.60
2008,05,28,07,13,11.60
2008,05,28,07,14,11.60
2008,05,28,07,15,11.60
2008,05,28,07,16,11.60
2008,05,28,07,17,11.70
2008,05,28,07,18,11.70
2008,05,28,07,19,11.80
2008,05,28,07,20,11.80
2008,05,28,07,21,11.80
2008,05,28,07,22,11.80
2008,05,28,07,23,11.80
2008,05,28,07,24,11.80
2008,05,28,07,25,11.80
2008,05,28,07,26,11.80
2008,05,28,07,27,11.90
2008,05,28,07,28,11.90
2008,05,28,07,29,11.90
2008,05,28,07,30,11.90
2008,05,28,07,31,12.00
2008,05,28,07,32,12.00
2008,05,28,07,33,12.00
2008,05,28,07,34,12.00
2008,05,28,07,35,12.10
2008,05,28,07,36,12.10
2008,05,28,07,37,12.10
2008,05,28,07,38,12.10
2008,05,28,07,39,12.20
2008,05,28,07,40,12.20
2008,05,28,07,41,12.20
2008,05,28,07,42,12.20
2008,05,28,07,43,12.30
2008,05,28,07,44,12.30
2008,05,28,07,45,12.30
2008,05,28,07,46,12.30
2008,05,28,07,47,12.30
2008,05,28,07,48,12.40
2008,05,28,07,49,12.40
2008,05,28,07,50,12.50
2008,05,28,07,51,12.50
2008,05,28,07,52,12.50
2008,05,28,07,53,12.60
2008,05,28,07,54,12.60
2008,05,28,07,55,12.70
2008,05,28,07,56,12.70
2008,05,28,07,57,12.80
2008,05,28,07,58,12.80
2008,05,28,07,59,12.90
2008,05,28,08,00,13.00
2008,05,28,08,01,13.10
2008,05,28,08,02,13.20
2008,05,28,08,03,13.20
2008,05,28,08,04,13.30
2008,05,28,08,05,13.30
2008,05,28,08,06,13.40
2008,05,28,08,07,13.50
2008,05,28,08,08,13.60
2008,05,28,08,09,13.60
2008,05,28,08,10,13.70
2008,05,28,08,11,13.80
2008,05,28,08,12,13.90
2008,05,28,08,13,14.00
2008,05,28,08,14,14.10
2008,05,28,08,15,14.20
2008,05,28,08,16,14.30
2008,05,28,08,17,14.30
2008,05,28,08,18,14.40
2008,05,28,08,19,14.40
2008,05,28,08,20,14.50
2008,05,28,08,21,14.50
2008,05,28,08,22,14.50
2008,05,28,08,23,14.60
2008,05,28,08,24,14.60
2008,05,28,08,25,14.60
2008,05,28,08,26,14.70
2008,05,28,08,27,14.80
2008,05,28,08,28,14.90
2008,05,28,08,29,15.00
2008,05,28,08,30,15.00
2008,05,28,08,31,15.10
2008,05,28,08,32,15.20
2008,05,28,08,33,15.20
2008,05,28,08,34,15.20
2008,05,28,08,35,15.20
2008,05,28,08,36,15.20
2008,05,28,08,37,15.20
2008,05,28,08,38,15.30
2008,05,28,08,39,15.30
2008,05,28,08,40,15.30
2008,05,28,08,41,15.30
2008,05,28,08,42,15.30
2008,05,28,08,43,15.30
2008,05,28,08,44,15.30
2008,05,28,08,45,15.30
2008,05,28,08,46,15.30
2008,05,28,08,47,15.30
2008,05,28,08,48,15.30
2008,05,28,08,49,15.40
2008,05,28,08,50,15.40
2008,05,28,08,51,15.40
2008,05,28,08,52,15.40
2008,05,28,08,53,15.50
2008,05,28,08,54,15.60
2008,05,28,08,55,15.60
2008,05,28,08,56,15.70
2008,05,28,08,57,15.80
2008,05,28,08,58,15.90
2008,05,28,08,59,15.90
2008,05,28,09,00,15.90
2008,05,28,09,01,16.00
2008,05,28,09,02,16.00
2008,05,28,09,03,15.90
2008,05,28,09,04,15.90
2008,05,28,09,05,15.90
2008,05,28,09,06,15.80
2008,05,28,09,07,15.60
2008,05,28,09,08,15.40
2008,05,28,09,09,15.30
2008,05,28,09,10,15.20
2008,05,28,09,11,15.20
2008,05,28,09,12,15.20
2008,05,28,09,13,15.20
2008,05,28,09,14,15.30
2008,05,28,09,15,15.30
2008,05,28,09,16,15.30
2008,05,28,09,17,15.30
2008,05,28,09,18,15.30
2008,05,28,09,19,15.30
2008,05,28,09,20,15.30
2008,05,28,09,21,15.30
2008,05,28,09,22,15.30
2008,05,28,09,23,15.30
2008,05,28,09,24,15.30
2008,05,28,09,25,15.30
2008,05,28,09,26,15.40
2008,05,28,09,27,15.40
2008,05,28,09,28,15.30
2008,05,28,09,29,15.30
2008,05,28,09,30,15.30
2008,05,28,09,31,15.30
2008,05,28,09,32,15.30
2008,05,28,09,33,15.40
2008,05,28,09,34,15.50
2008,05,28,09,35,15.60
2008,05,28,09,36,15.70
2008,05,28,09,37,15.80
2008,05,28,09,38,15.80
2008,05,28,09,39,15.80
2008,05,28,09,40,15.80
2008,05,28,09,41,15.80
2008,05,28,09,42,15.80
2008,05,28,09,43,15.90
2008,05,28,09,44,15.90
2008,05,28,09,45,15.90
2008,05,28,09,46,16.00
2008,05,28,09,47,16.10
2008,05,28,09,48,16.10
2008,05,28,09,49,16.10
2008,05,28,09,50,16.10
2008,05,28,09,51,16.10
2008,05,28,09,52,16.10
2008,05,28,09,53,16.10
2008,05,28,09,54,16.00
2008,05,28,09,55,16.00
2008,05,28,09,56,16.10
2008,05,28,09,57,16.10
2008,05,28,09,58,16.10
2008,05,28,09,59,16.10
2008,05,28,10,00,16.20
2008,05,28,10,01,16.20
2008,05,28,10,02,16.30
2008,05,28,10,03,16.30
2008,05,28,10,04,16.30
2008,05,28,10,05,16.20
2008,05,28,10,06,16.20
2008,05,28,10,07,16.30
2008,05,28,10,08,16.30
2008,05,28,10,09,16.40
2008,05,28,10,10,16.40
2008,05,28,10,11,16.40
2008,05,28,10,12,16.40
2008,05,28,10,13,16.40
2008,05,28,10,14,16.40
2008,05,28,10,15,16.40
2008,05,28,10,16,16.50
2008,05,28,10,17,16.70
2008,05,28,10,18,16.70
2008,05,28,10,19,16.80
2008,05,28,10,20,16.80
2008,05,28,10,21,16.90
2008,05,28,10,22,16.90
2008,05,28,10,23,16.80
2008,05,28,10,24,16.70
2008,05,28,10,25,16.70
2008,05,28,10,26,16.60
2008,05,28,10,27,16.50
2008,05,28,10,28,16.40
2008,05,28,10,29,16.40
2008,05,28,10,30,16.50
2008,05,28,10,31,16.70
2008,05,28,10,32,16.70
2008,05,28,10,33,16.70
2008,05,28,10,34,16.50
2008,05,28,10,35,16.40
2008,05,28,10,36,16.40
2008,05,28,10,37,16.40
2008,05,28,10,38,16.60
2008,05,28,10,39,16.70
2008,05,28,10,40,16.90
2008,05,28,10,41,17.10
2008,05,28,10,42,17.20
2008,05,28,10,43,17.30
2008,05,28,10,44,17.30
2008,05,28,10,45,17.40
2008,05,28,10,46,17.60
2008,05,28,10,47,17.70
2008,05,28,10,48,17.60
2008,05,28,10,49,17.60
2008,05,28,10,50,17.60
2008,05,28,10,51,17.50
2008,05,28,10,52,17.40
2008,05,28,10,53,17.40
2008,05,28,10,54,17.40
2008,05,28,10,55,17.40
2008,05,28,10,56,17.40
2008,05,28,10,57,17.40
2008,05,28,10,58,17.50
2008,05,28,10,59,17.50
2008,05,28,11,00,17.60
2008,05,28,11,01,17.70
2008,05,28,11,02,17.80
2008,05,28,11,03,17.90
2008,05,28,11,04,17.90
2008,05,28,11,05,17.90
2008,05,28,11,06,17.80
2008,05,28,11,07,17.80
2008,05,28,11,08,17.80
2008,05,28,11,09,17.90
2008,05,28,11,10,17.90
2008,05,28,11,11,17.90
2008,05,28,11,12,17.80
2008,05,28,11,13,17.80
2008,05,28,11,14,17.70
2008,05,28,11,15,17.60
2008,05,28,11,16,17.30
2008,05,28,11,17,17.30
2008,05,28,11,18,17.30
2008,05,28,11,19,17.20
2008,05,28,11,20,17.20
2008,05,28,11,21,17.10
2008,05,28,11,22,17.10
2008,05,28,11,23,17.10
2008,05,28,11,24,17.00
2008,05,28,11,25,16.90
2008,05,28,11,26,16.90
2008,05,28,11,27,16.90
2008,05,28,11,28,16.90
2008,05,28,11,29,16.90
2008,05,28,11,30,17.00
2008,05,28,11,31,17.10
2008,05,28,11,32,17.30
2008,05,28,11,33,17.30
2008,05,28,11,34,17.40
2008,05,28,11,35,17.50
2008,05,28,11,36,17.70
2008,05,28,11,37,17.70
2008,05,28,11,38,17.70
2008,05,28,11,39,17.60
2008,05,28,11,40,17.70
2008,05,28,11,41,17.70
2008,05,28,11,42,17.70
2008,05,28,11,43,17.70
2008,05,28,11,44,17.70
2008,05,28,11,45,17.60
2008,05,28,11,46,17.70
2008,05,28,11,47,17.80
2008,05,28,11,48,17.80
2008,05,28,11,49,17.80
2008,05,28,11,50,17.80
2008,05,28,11,51,17.80
2008,05,28,11,52,17.60
2008,05,28,11,53,17.40
2008,05,28,11,54,17.30
2008,05,28,11,55,17.30
2008,05,28,11,56,17.50
2008,05,28,11,57,17.70
2008,05,28,11,58,17.80
2008,05,28,11,59,18.00
2008,05,28,12,00,17.90
2008,05,28,12,01,17.80
2008,05,28,12,02,17.50
2008,05,28,12,03,17.50
2008,05,28,12,04,17.50
2008,05,28,12,05,17.50
2008,05,28,12,06,17.50
2008,05,28,12,07,17.40
2008,05,28,12,08,17.50
2008,05,28,12,09,17.70
2008,05,28,12,10,17.70
2008,05,28,12,11,17.80
2008,05,28,12,12,17.70
2008,05,28,12,13,17.70
2008,05,28,12,14,17.60
2008,05,28,12,15,17.50
2008,05,28,12,16,17.40
2008,05,28,12,17,17.30
2008,05,28,12,18,17.30
2008,05,28,12,19,17.40
2008,05,28,12,20,17.40
2008,05,28,12,21,17.30
2008,05,28,12,22,17.30
2008,05,28,12,23,17.40
2008,05,28,12,24,17.50
2008,05,28,12,25,17.60
2008,05,28,12,26,17.70
2008,05,28,12,27,17.70
2008,05,28,12,28,17.70
2008,05,28,12,29,17.70
2008,05,28,12,30,17.80
2008,05,28,12,31,17.70
2008,05,28,12,32,17.70
2008,05,28,12,33,17.60
2008,05,28,12,34,17.60
2008,05,28,12,35,17.70
2008,05,28,12,36,17.70
2008,05,28,12,37,17.70
2008,05,28,12,38,17.80
2008,05,28,12,39,17.90
2008,05,28,12,40,18.00
2008,05,28,12,41,18.10
2008,05,28,12,42,18.20
2008,05,28,12,43,18.30
2008,05,28,12,44,18.40
2008,05,28,12,45,18.30
2008,05,28,12,46,18.10
2008,05,28,12,47,18.10
2008,05,28,12,48,18.00
2008,05,28,12,49,18.00
2008,05,28,12,50,18.10
2008,05,28,12,51,18.20
2008,05,28,12,52,18.40
2008,05,28,12,53,18.60
2008,05,28,12,54,18.80
2008,05,28,12,55,19.00
2008,05,28,12,56,19.10
2008,05,28,12,57,19.30
2008,05,28,12,58,19.40
2008,05,28,12,59,19.40
2008,05,28,13,00,19.50
2008,05,28,13,01,19.50
2008,05,28,13,02,19.50
2008,05,28,13,03,19.50
2008,05,28,13,04,19.50
2008,05,28,13,05,19.50
2008,05,28,13,06,19.60
2008,05,28,13,07,19.70
2008,05,28,13,08,19.70
2008,05,28,13,09,19.70
2008,05,28,13,10,19.80
2008,05,28,13,11,19.90
2008,05,28,13,12,19.90
2008,05,28,13,13,19.90
2008,05,28,13,14,19.90
2008,05,28,13,15,19.90
2008,05,28,13,16,19.90
2008,05,28,13,17,19.90
2008,05,28,13,18,19.90
2008,05,28,13,19,20.00
2008,05,28,13,20,20.10
2008,05,28,13,21,20.10
2008,05,28,13,22,20.10
2008,05,28,13,23,20.10
2008,05,28,13,24,20.10
2008,05,28,13,25,20.10
2008,05,28,13,26,20.00
2008,05,28,13,27,20.00
2008,05,28,13,28,20.10
2008,05,28,13,29,20.10
2008,05,28,13,30,20.20
2008,05,28,13,31,20.20
2008,05,28,13,32,20.20
2008,05,28,13,33,20.20
2008,05,28,13,34,20.20
2008,05,28,13,35,20.20
2008,05,28,13,36,20.30
2008,05,28,13,37,20.30
2008,05,28,13,38,20.40
2008,05,28,13,39,20.40
2008,05,28,13,40,20.50
2008,05,28,13,41,20.50
2008,05,28,13,42,20.60
2008,05,28,13,43,20.60
2008,05,28,13,44,20.70
2008,05,28,13,45,20.90
2008,05,28,13,46,21.00
2008,05,28,13,47,21.10
2008,05,28,13,48,21.20
2008,05,28,13,49,21.10
2008,05,28,13,50,21.00
2008,05,28,13,51,21.00
2008,05,28,13,52,21.00
2008,05,28,13,53,21.00
2008,05,28,13,54,21.00
2008,05,28,13,55,21.00
2008,05,28,13,56,21.00
2008,05,28,13,57,21.20
2008,05,28,13,58,21.30
2008,05,28,13,59,21.40
2008,05,28,14,00,21.50
2008,05,28,14,01,21.60
2008,05,28,14,02,21.60
2008,05,28,14,03,21.60
2008,05,28,14,04,21.60
2008,05,28,14,05,21.70
2008,05,28,14,06,21.70
2008,05,28,14,07,21.60
2008,05,28,14,08,21.60
2008,05,28,14,09,21.60
2008,05,28,14,10,21.60
2008,05,28,14,11,21.60
2008,05,28,14,12,21.50
2008,05,28,14,13,21.50
2008,05,28,14,14,21.60
2008,05,28,14,15,21.60
2008,05,28,14,16,21.70
2008,05,28,14,17,21.70
2008,05,28,14,18,21.70
2008,05,28,14,19,21.60
2008,05,28,14,20,21.60
2008,05,28,14,21,21.40
2008,05,28,14,22,21.40
2008,05,28,14,23,21.30
2008,05,28,14,24,21.30
2008,05,28,14,25,21.30
2008,05,28,14,26,21.30
2008,05,28,14,27,21.20
2008,05,28,14,28,21.20
2008,05,28,14,29,21.10
2008,05,28,14,30,21.10
2008,05,28,14,31,21.00
2008,05,28,14,32,20.90
2008,05,28,14,33,20.90
2008,05,28,14,34,20.90
2008,05,28,14,35,20.90
2008,05,28,14,36,20.90
2008,05,28,14,37,20.90
2008,05,28,14,38,21.00
2008,05,28,14,39,21.10
2008,05,28,14,40,21.10
2008,05,28,14,41,21.30
2008,05,28,14,42,21.30
2008,05,28,14,43,21.30
2008,05,28,14,44,21.30
2008,05,28,14,45,21.30
2008,05,28,14,46,21.30
2008,05,28,14,47,21.30
2008,05,28,14,48,21.30
2008,05,28,14,49,21.30
2008,05,28,14,50,21.40
2008,05,28,14,51,21.40
2008,05,28,14,52,21.40
2008,05,28,14,53,21.40
2008,05,28,14,54,21.50
2008,05,28,14,55,21.60
2008,05,28,14,56,21.70
2008,05,28,14,57,21.70
2008,05,28,14,58,21.70
2008,05,28,14,59,21.60
2008,05,28,15,00,21.60
2008,05,28,15,01,21.60
2008,05,28,15,02,21.70
2008,05,28,15,03,21.70
2008,05,28,15,04,21.70
2008,05,28,15,05,21.70
2008,05,28,15,06,21.70
2008,05,28,15,07,21.80
2008,05,28,15,08,21.80
2008,05,28,15,09,21.80
2008,05,28,15,10,21.80
2008,05,28,15,11,21.80
2008,05,28,15,12,21.70
2008,05,28,15,13,21.70
2008,05,28,15,14,21.60
2008,05,28,15,15,21.60
2008,05,28,15,16,21.60
2008,05,28,15,17,21.60
2008,05,28,15,18,21.60
2008,05,28,15,19,21.70
2008,05,28,15,20,21.80
2008,05,28,15,21,21.80
2008,05,28,15,22,21.90
2008,05,28,15,23,21.80
2008,05,28,15,24,21.70
2008,05,28,15,25,21.80
2008,05,28,15,26,21.80
2008,05,28,15,27,21.80
2008,05,28,15,28,21.80
2008,05,28,15,29,21.80
2008,05,28,15,30,21.70
2008,05,28,15,31,21.60
2008,05,28,15,32,21.60
2008,05,28,15,33,21.50
2008,05,28,15,34,21.40
2008,05,28,15,35,21.20
2008,05,28,15,36,21.20
2008,05,28,15,37,21.20
2008,05,28,15,38,21.10
2008,05,28,15,39,21.10
2008,05,28,15,40,21.10
2008,05,28,15,41,21.10
2008,05,28,15,42,21.10
2008,05,28,15,43,21.10
2008,05,28,15,44,21.10
2008,05,28,15,45,21.20
2008,05,28,15,46,21.20
2008,05,28,15,47,21.20
2008,05,28,15,48,21.20
2008,05,28,15,49,21.20
2008,05,28,15,50,21.10
2008,05,28,15,51,21.00
2008,05,28,15,52,21.00
2008,05,28,15,53,20.90
2008,05,28,15,54,20.80
2008,05,28,15,55,20.70
2008,05,28,15,56,20.50
2008,05,28,15,57,20.40
2008,05,28,15,58,20.30
2008,05,28,15,59,20.20
2008,05,28,16,00,20.00
2008,05,28,16,01,19.90
2008,05,28,16,02,19.90
2008,05,28,16,03,19.90
2008,05,28,16,04,19.90
2008,05,28,16,05,19.90
2008,05,28,16,06,19.90
2008,05,28,16,07,20.00
2008,05,28,16,08,20.20
2008,05,28,16,09,20.30
2008,05,28,16,10,20.50
2008,05,28,16,11,20.60
2008,05,28,16,12,20.70
2008,05,28,16,13,20.80
2008,05,28,16,14,20.80
2008,05,28,16,15,20.80
2008,05,28,16,16,20.80
2008,05,28,16,17,20.80
2008,05,28,16,18,20.70
2008,05,28,16,19,20.70
2008,05,28,16,20,20.70
2008,05,28,16,21,20.70
2008,05,28,16,22,20.60
2008,05,28,16,23,20.60
2008,05,28,16,24,20.60
2008,05,28,16,25,20.50
2008,05,28,16,26,20.50
2008,05,28,16,27,20.60
2008,05,28,16,28,20.70
2008,05,28,16,29,20.90
2008,05,28,16,30,21.00
2008,05,28,16,31,21.20
2008,05,28,16,32,21.30
2008,05,28,16,33,21.50
2008,05,28,16,34,21.60
2008,05,28,16,35,21.70
2008,05,28,16,36,21.80
2008,05,28,16,37,21.80
2008,05,28,16,38,22.00
2008,05,28,16,39,22.10
2008,05,28,16,40,22.10
2008,05,28,16,41,22.10
2008,05,28,16,42,22.20
2008,05,28,16,43,22.20
2008,05,28,16,44,22.20
2008,05,28,16,45,22.30
2008,05,28,16,46,22.30
2008,05,28,16,47,22.40
2008,05,28,16,48,22.50
2008,05,28,16,49,22.40
2008,05,28,16,50,22.40
2008,05,28,16,51,22.40
2008,05,28,16,52,22.30
2008,05,28,16,53,22.20
2008,05,28,16,54,22.10
2008,05,28,16,55,22.00
2008,05,28,16,56,22.00
2008,05,28,16,57,21.80
2008,05,28,16,58,21.70
2008,05,28,16,59,21.60
2008,05,28,17,00,21.50
2008,05,28,17,01,21.40
2008,05,28,17,02,21.30
2008,05,28,17,03,21.20
2008,05,28,17,04,21.10
2008,05,28,17,05,21.00
2008,05,28,17,06,20.90
2008,05,28,17,07,20.80
2008,05,28,17,08,20.70
2008,05,28,17,09,20.70
2008,05,28,17,10,20.60
2008,05,28,17,11,20.60
2008,05,28,17,12,20.60
2008,05,28,17,13,20.60
2008,05,28,17,14,20.60
2008,05,28,17,15,20.60
2008,05,28,17,16,20.60
2008,05,28,17,17,20.60
2008,05,28,17,18,20.60
2008,05,28,17,19,20.60
2008,05,28,17,20,20.50
2008,05,28,17,21,20.50
2008,05,28,17,22,20.50
2008,05,28,17,23,20.50